Weather in Teya

Russia / Krasnoyarsk Krai     60°22′28″N   92°37′52″E
temp.,
°C
wind,
m/s
gust,
m/s
humid.,
%
clouds,
%
prec.,
mm/h
press.,
hPa
HPBL,
m
15 june, tue
tue1501:00+6sw11715 0.0 101610
04:00+5s11765 0.0 101610
07:00+12sw11535 0.0 1015212
10:00+17nnw233618 0.0 10131713
13:00+20ene223375 0.0 10122358
16:00+20e33357 0.0 10111962
19:00+18se354395 0.0 1011765
22:00+13sse2462100 0.0 101199
16 june, wed
wed1601:00+11s217663 0.0 101226
04:00+8ssw2287100 0.0 101328
07:00+13sse2366100 0.0 1012273
10:00+18ssw3549100 0.0 10121570
13:00+20ssw4536100 0.0 10122215
16:00+18sw4536100 0.0 10121769
19:00+18s253870 0.0 1012988
22:00+14sse2148100 0.0 101215
17 june, thu
thu1701:00+13sse2269100 0.0 101248
04:00+13se227144 0.0 101250
07:00+16s245973 0.0 1011383
10:00+18ssw2458100 0.0 1010976
13:00+21ssw134995 0.1 10091431
16:00+23s2341100 0.0 10081859
19:00+19s265887 0.0 1008217
22:00+17sse2266100 0.0 100829
18 june, fri
fri1801:00+15se226726 0.0 100840
04:00+12sse227815 0.0 100819
07:00+18sse235677 0.0 1007253
10:00+23s233766 0.0 10062061
13:00+25sse232972 0.0 10042747
16:00+26sse2326100 0.0 10032941
19:00+23ssw4742100 0.0 1004592
22:00+18s117037 0.0 100416
19 june, sat
sat1901:00+14sse228534 0.0 100516
04:00+13se22826 0.0 100520
07:00+20sse13565 0.0 1005240
10:00+25s46335 0.0 10042309
13:00+27ssw342726 0.0 10043015
16:00+28sw342578 0.0 10032981
19:00+23s124489 0.0 100390
22:00+20wsw116152 0.0 100411